Regional Weather Roundup
Issued by NWS Memphis, TN

Home | Current Version | Previous Version | Text Only | Print | Product List | Glossary On
Versions: 1 2 3 4 5 6 7 8 9 10 11 12 13 14 15 16 17 18 19 20 21 22 23 24 25 26 27 28 29 30 31 32 33 34 35 36 37 38 39 40 41 42 43 44 45 46 47 48 49 50
000
ASUS44 KMEG 230810
RWRMEG
MEMPHIS CWA HOURLY WEATHER ROUNDUP
NATIONAL WEATHER SERVICE MEMPHIS TN
200 AM CST SUN NOV 23 2014

...WEST TENNESSEE...

CITY           SKY/WX    TMP DP  RH WIND       PRES   REMARKS
MEMPHIS INTL   MOCLDY    59  51  75 SE12      29.86F
NWS MEMPHIS      N/A     59 N/A N/A MISG        N/A
JACKSON        CLOUDY    60  50  69 SE7       29.91F
LEXINGTON      CLOUDY    57  46  67 SE6       29.93F
SAVANNAH       CLOUDY    59  50  72 SE8       29.94F
DYERSBURG      CLEAR     54  39  58 SE8       29.91F
UNION CITY     MOCLDY    52  46  82 SE3       29.91F
PARIS          CLOUDY    52  43  71 SE6       29.94F
HUNTINGDON     CLOUDY    55  45  69 SE6       29.94F


...EASTERN ARKANSAS...

CITY           SKY/WX    TMP DP  RH WIND       PRES   REMARKS
JONESBORO      PTCLDY    46  43  89 NE6       29.84F
WEST MEMPHIS   PTCLDY    57  53  86 SE13      29.83F
BATESVILLE     CLOUDY    55  48  76 SE9       29.80F
NEWPORT        MOCLDY    49  47  93 SE10      29.84F
WALNUT RIDGE   MOCLDY    54  45  71 SE8       29.83F
BLYTHEVILLE    PTCLDY    63  50  62 SE9       29.87F
SEARCY         CLOUDY    55  50  83 SE6       29.80F
STUTTGART      CLOUDY    55  48  76 SE12      29.81F
PINE BLUFF     CLOUDY    57  51  80 SE12      29.79F
MONTICELLO     LGT RAIN  57  53  86 E8        29.79F


...NORTH MISSISSIPPI...

CITY           SKY/WX    TMP DP  RH WIND       PRES   REMARKS
TUPELO         CLOUDY    58  54  86 MISG      29.91F FOG
OXFORD         CLOUDY    57  54  88 SE9       29.90F
OLIVE BRANCH   CLOUDY    57  55  94 SE14      29.88F
TUNICA         PTCLDY    57  52  82 SE10      29.85F
CLARKSDALE     MOCLDY    55  54  94 SE8       29.85F
CORINTH        CLOUDY    61  52  72 SE14      29.91F
GRENADA        CLOUDY    59  54  82 SE12G17   29.87F
GREENWOOD      CLOUDY    61  55  81 SE12G20   29.84F
COLUMBUS       CLOUDY    59  53  79 SE14      29.91F
STARKVILLE     CLOUDY    57  54  88 SE7       29.92F
GOLDEN TRIANGL CLOUDY    59  52  77 SE18      29.90F


...SOUTHEAST MISSOURI...

CITY           SKY/WX    TMP DP  RH WIND       PRES   REMARKS
WEST PLAINS    CLOUDY    52  46  80 SE12G18   29.79F
POPLAR BLUFF   CLOUDY    52  43  71 S6        29.86S
CAPE GIRARDEAU MOCLDY    50  42  74 SE8       29.89F


...NORTHWEST ALABAMA...

CITY           SKY/WX    TMP DP  RH WIND       PRES   REMARKS
MUSCLE SHOALS  CLOUDY    59  49  69 SE10      29.99F


...MIDDLE TENNESSEE...

CITY           SKY/WX    TMP DP  RH WIND       PRES   REMARKS
NASHVILLE      MOCLDY    53  37  54 SE7       30.03S
CLARKSVILLE    CLEAR     53  40  61 S7        29.98F


...WESTERN KENTUCKY...

CITY           SKY/WX    TMP DP  RH WIND       PRES   REMARKS
PADUCAH        CLEAR     52  43  71 SE9       29.91F
FORT CAMPBELL  PTCLDY    53  41  62 SE6       29.97F


...CENTRAL ARKANSAS...

CITY           SKY/WX    TMP DP  RH WIND       PRES   REMARKS
LITTLE ROCK    CLOUDY    60  50  69 SE16G22   29.76F


SKY/WX REPORTED AS FAIR MEANS FEW OR NO CLOUDS BELOW
12 THOUSAND FEET.



USA.gov is the U.S. government's official web portal to all federal, state and local government web resources and services.